Location: ????????
(55.4000°N, 39.1167°E)
Time: 08:00:12
(UTC+00:00)

Cosmos 1821 Rocket - Pass Details

Date: 19 May 2025
Orbit: 943 x 1004 km, 82.9° (Epoch: 23 June)

Event Time Altitude Azimuth Distance (km) Brightness Sun altitude
Rises 18:41:14 0° 349° (NNW) 3,651 8.3 -7.5°
Reaches altitude 10° 18:43:48 10° 353° (N) 2,694 7.4 -7.7°
Maximum altitude 18:49:53 60° 73° (ENE) 1,078 4.2 -8.2°
Enters shadow 18:55:50 10° 153° (SSE) 2,638 5.6 -8.7°
